GEFSCGP_prec_meanprecacc_240.txt.gz
Total_Precipitation_Accumulation
0.32 0.68 0.94 0.84 0.77 0.77 0.74 0.72 0.74 0.63 0.57 0.60 0.55 0.49 0.53 0.55 0.58 0.52 0.52 0.51 0.42 0.38 0.40 0.38 0.32 0.34 0.37 0.49 0.60 0.77 1.13 1.56 1.73 1.61 1.57 1.62 1.72 1.70 1.60 1.56 1.53 1.58 1.57 1.57
0.37 0.48 0.39 0.43 0.48 0.60 0.69 0.74 0.76 0.66 0.48 0.48 0.48 0.42 0.42 0.48 0.49 0.46 0.43 0.45 0.40 0.35 0.31 0.28 0.24 0.28 0.33 0.50 0.65 0.77 1.06 1.51 1.70 1.80 1.92 2.12 2.30 2.18 2.04 2.02 1.97 2.04 2.06 2.21
0.33 0.29 0.23 0.35 0.52 0.63 0.68 0.71 0.70 0.64 0.49 0.44 0.42 0.44 0.39 0.44 0.40 0.37 0.37 0.39 0.34 0.27 0.25 0.25 0.24 0.27 0.32 0.44 0.56 0.70 0.90 1.20 1.55 1.80 2.06 2.33 2.56 2.53 2.41 2.24 2.23 2.29 2.34 2.50
0.33 0.27 0.27 0.35 0.44 0.54 0.70 0.48 0.44 0.44 0.57 0.59 0.44 0.64 0.46 0.45 0.41 0.36 0.37 0.37 0.35 0.30 0.28 0.31 0.28 0.29 0.32 0.40 0.49 0.64 0.84 1.07 1.32 1.56 1.95 2.38 2.67 2.76 2.66 2.57 2.54 2.49 2.51 2.56
0.30 0.25 0.28 0.33 0.34 0.41 0.52 0.41 0.41 0.43 0.52 0.48 0.34 0.47 0.45 0.38 0.40 0.36 0.33 0.32 0.32 0.30 0.32 0.35 0.35 0.37 0.40 0.42 0.47 0.60 0.75 0.98 1.23 1.45 1.80 2.19 2.47 2.68 2.82 2.65 2.52 2.54 2.57 2.60
0.26 0.20 0.21 0.27 0.31 0.34 0.41 0.44 0.43 0.45 0.50 0.54 0.27 0.39 0.50 0.36 0.32 0.33 0.30 0.27 0.29 0.31 0.37 0.41 0.50 0.54 0.54 0.48 0.53 0.63 0.74 0.89 1.05 1.19 1.40 1.63 1.98 2.22 2.55 2.54 2.47 2.59 2.57 2.49
0.30 0.26 0.22 0.24 0.31 0.34 0.40 0.61 0.78 0.77 0.73 0.50 0.22 0.36 0.50 0.36 0.29 0.30 0.31 0.29 0.29 0.33 0.39 0.48 0.61 0.67 0.68 0.58 0.55 0.58 0.73 0.82 0.89 0.99 1.08 1.22 1.47 1.64 2.01 2.32 2.29 2.22 2.26 2.32
0.33 0.33 0.21 0.21 0.27 0.32 0.34 0.53 0.83 0.92 0.80 0.52 0.36 0.53 0.57 0.41 0.33 0.30 0.29 0.32 0.36 0.40 0.46 0.63 0.79 0.83 0.82 0.71 0.63 0.62 0.74 0.82 0.86 0.91 0.93 1.01 1.14 1.24 1.41 1.64 1.74 1.77 1.82 2.05
0.34 0.29 0.19 0.20 0.20 0.21 0.29 0.35 0.41 0.59 0.57 0.58 0.56 0.64 0.57 0.39 0.37 0.37 0.38 0.42 0.52 0.61 0.65 0.78 0.94 1.00 0.89 0.79 0.71 0.70 0.77 0.89 0.90 0.92 0.95 1.04 1.07 1.07 1.18 1.21 1.35 1.53 1.57 1.62
0.35 0.33 0.22 0.21 0.22 0.21 0.21 0.27 0.43 0.64 0.81 0.83 0.67 0.67 0.65 0.55 0.51 0.48 0.52 0.57 0.68 0.79 0.85 0.94 1.09 1.13 0.97 0.82 0.73 0.71 0.76 0.89 1.07 1.19 1.15 1.12 1.19 1.25 1.46 1.49 1.34 1.31 1.46 1.51
0.46 0.46 0.27 0.24 0.24 0.24 0.25 0.35 0.50 0.67 0.69 0.95 1.05 0.97 0.76 0.69 0.69 0.71 0.74 0.78 0.85 0.97 0.97 0.95 1.05 1.11 1.01 0.81 0.72 0.68 0.71 0.81 0.95 1.00 1.05 1.03 1.11 1.22 1.48 1.70 1.64 1.46 1.44 1.46
0.44 0.59 0.41 0.28 0.26 0.28 0.34 0.45 0.66 1.00 0.95 0.87 1.05 1.04 0.76 0.68 0.71 0.72 0.72 0.72 0.77 0.88 0.89 0.92 0.96 0.91 0.83 0.69 0.60 0.57 0.59 0.70 0.82 0.82 0.86 0.94 0.96 1.07 1.19 1.30 1.32 1.26 1.17 1.13
0.56 0.79 0.77 0.62 0.58 0.46 0.53 0.55 0.63 0.82 0.94 0.95 1.08 1.05 0.71 0.63 0.57 0.59 0.62 0.65 0.68 0.68 0.68 0.69 0.71 0.68 0.67 0.66 0.63 0.57 0.58 0.65 0.72 0.76 0.82 0.87 0.89 0.91 0.95 0.97 0.90 0.94 0.95 1.00
0.56 0.66 0.75 0.80 0.77 0.72 0.69 0.58 0.54 0.75 1.04 0.95 0.91 0.86 0.69 0.61 0.56 0.58 0.60 0.61 0.64 0.57 0.49 0.50 0.52 0.56 0.61 0.63 0.64 0.61 0.57 0.63 0.72 0.87 0.93 0.96 0.97 0.97 0.97 0.95 0.92 0.93 0.94 0.97
0.46 0.47 0.38 0.36 0.38 0.50 0.54 0.46 0.46 0.55 0.65 0.81 0.77 0.72 0.60 0.56 0.60 0.62 0.60 0.56 0.53 0.46 0.40 0.40 0.41 0.45 0.47 0.49 0.53 0.56 0.53 0.58 0.66 0.80 0.90 0.93 0.97 1.00 0.95 0.87 0.83 0.88 0.87 0.86
0.35 0.38 0.31 0.27 0.26 0.36 0.43 0.42 0.42 0.43 0.46 0.57 0.62 0.62 0.49 0.45 0.44 0.45 0.42 0.36 0.36 0.37 0.32 0.30 0.31 0.33 0.33 0.33 0.36 0.38 0.46 0.56 0.61 0.70 0.81 0.97 1.01 0.92 0.86 0.77 0.76 0.77 0.76 0.75
0.33 0.42 0.50 0.40 0.31 0.36 0.59 0.56 0.56 0.58 0.52 0.52 0.46 0.37 0.25 0.25 0.27 0.31 0.31 0.31 0.34 0.33 0.28 0.26 0.27 0.27 0.27 0.30 0.35 0.39 0.47 0.56 0.56 0.63 0.77 0.97 0.95 0.84 0.78 0.81 0.83 0.79 0.76 0.77
0.28 0.44 0.62 0.49 0.48 0.79 0.91 0.64 0.61 0.58 0.38 0.24 0.17 0.15 0.15 0.21 0.20 0.19 0.21 0.23 0.26 0.26 0.22 0.21 0.21 0.21 0.21 0.24 0.30 0.34 0.39 0.42 0.46 0.54 0.65 0.80 0.81 0.79 0.82 0.80 0.77 0.72 0.67 0.65
0.27 0.47 0.69 0.58 0.60 0.75 0.69 0.45 0.37 0.38 0.28 0.12 0.09 0.11 0.13 0.15 0.15 0.12 0.13 0.14 0.14 0.15 0.12 0.12 0.13 0.14 0.13 0.13 0.16 0.20 0.23 0.26 0.31 0.40 0.51 0.63 0.63 0.67 0.68 0.66 0.65 0.62 0.58 0.59
0.41 0.53 0.78 0.72 0.82 0.77 0.41 0.22 0.20 0.28 0.37 0.14 0.09 0.09 0.08 0.09 0.13 0.09 0.07 0.08 0.08 0.08 0.07 0.06 0.07 0.08 0.08 0.09 0.11 0.13 0.16 0.20 0.23 0.31 0.40 0.51 0.54 0.56 0.56 0.61 0.63 0.62 0.58 0.55
0.44 0.55 0.66 0.69 0.89 0.70 0.31 0.17 0.19 0.35 0.43 0.18 0.10 0.08 0.06 0.06 0.06 0.05 0.06 0.06 0.06 0.06 0.05 0.05 0.05 0.06 0.08 0.10 0.09 0.09 0.13 0.16 0.19 0.22 0.29 0.35 0.43 0.51 0.60 0.66 0.66 0.68 0.64 0.59
0.53 0.57 0.55 0.63 0.79 0.71 0.32 0.25 0.31 0.30 0.19 0.13 0.09 0.07 0.06 0.05 0.04 0.03 0.04 0.04 0.05 0.05 0.05 0.05 0.05 0.06 0.08 0.10 0.09 0.08 0.11 0.15 0.17 0.17 0.22 0.31 0.39 0.48 0.58 0.69 0.73 0.70 0.68 0.66
0.55 0.59 0.62 0.69 0.78 0.53 0.34 0.33 0.30 0.24 0.20 0.13 0.08 0.05 0.05 0.05 0.04 0.03 0.03 0.04 0.05 0.06 0.05 0.05 0.05 0.05 0.06 0.08 0.10 0.09 0.11 0.13 0.13 0.14 0.18 0.25 0.30 0.32 0.40 0.51 0.61 0.66 0.67 0.66
0.38 0.38 0.47 0.56 0.49 0.31 0.29 0.28 0.23 0.21 0.17 0.09 0.07 0.05 0.05 0.05 0.04 0.03 0.03 0.03 0.04 0.05 0.05 0.06 0.06 0.06 0.07 0.07 0.08 0.10 0.11 0.12 0.13 0.16 0.18 0.20 0.22 0.22 0.25 0.37 0.44 0.49 0.55 0.60
0.32 0.38 0.43 0.49 0.44 0.30 0.24 0.24 0.22 0.19 0.13 0.08 0.07 0.06 0.05 0.05 0.04 0.03 0.03 0.03 0.03 0.04 0.04 0.05 0.05 0.07 0.08 0.07 0.08 0.10 0.12 0.13 0.14 0.15 0.15 0.16 0.18 0.20 0.22 0.28 0.38 0.44 0.49 0.53
0.26 0.36 0.49 0.53 0.46 0.41 0.26 0.21 0.18 0.16 0.12 0.08 0.07 0.06 0.05 0.05 0.05 0.04 0.03 0.03 0.04 0.05 0.05 0.06 0.06 0.07 0.08 0.09 0.08 0.11 0.13 0.13 0.18 0.20 0.17 0.16 0.17 0.21 0.23 0.25 0.29 0.31 0.35 0.36

GEFSCGP_prec_meanprecacc_246.txt.gz
Total_Precipitation_Accumulation
0.32 0.69 0.94 0.84 0.77 0.78 0.74 0.72 0.74 0.63 0.57 0.60 0.55 0.49 0.53 0.55 0.58 0.52 0.53 0.52 0.43 0.38 0.40 0.38 0.32 0.35 0.38 0.49 0.60 0.77 1.14 1.57 1.74 1.63 1.59 1.63 1.72 1.70 1.60 1.57 1.53 1.58 1.57 1.57
0.38 0.48 0.39 0.43 0.48 0.60 0.69 0.74 0.76 0.66 0.48 0.48 0.48 0.42 0.42 0.48 0.49 0.46 0.43 0.45 0.40 0.35 0.31 0.28 0.25 0.29 0.34 0.51 0.66 0.78 1.07 1.51 1.71 1.81 1.94 2.15 2.32 2.19 2.05 2.03 1.98 2.05 2.07 2.22
0.33 0.29 0.23 0.35 0.52 0.63 0.68 0.71 0.70 0.64 0.49 0.44 0.43 0.45 0.39 0.44 0.40 0.37 0.38 0.39 0.34 0.27 0.25 0.25 0.24 0.28 0.32 0.45 0.57 0.71 0.91 1.20 1.55 1.81 2.07 2.35 2.57 2.54 2.41 2.26 2.24 2.30 2.36 2.51
0.33 0.27 0.27 0.35 0.44 0.54 0.70 0.48 0.44 0.44 0.58 0.59 0.44 0.66 0.47 0.46 0.42 0.37 0.37 0.37 0.36 0.30 0.28 0.31 0.29 0.30 0.33 0.40 0.50 0.65 0.84 1.07 1.33 1.56 1.97 2.39 2.68 2.77 2.67 2.57 2.55 2.50 2.51 2.57
0.31 0.25 0.28 0.33 0.34 0.41 0.52 0.41 0.41 0.43 0.53 0.49 0.34 0.48 0.46 0.39 0.41 0.36 0.34 0.33 0.32 0.30 0.32 0.35 0.35 0.37 0.40 0.43 0.48 0.61 0.77 0.99 1.24 1.46 1.80 2.20 2.48 2.69 2.82 2.66 2.53 2.55 2.57 2.60
0.26 0.20 0.21 0.27 0.31 0.34 0.41 0.44 0.43 0.45 0.51 0.56 0.27 0.40 0.51 0.37 0.33 0.34 0.30 0.28 0.29 0.32 0.37 0.41 0.51 0.54 0.54 0.49 0.54 0.64 0.75 0.91 1.07 1.20 1.40 1.64 1.99 2.23 2.56 2.55 2.48 2.60 2.58 2.50
0.30 0.26 0.22 0.24 0.31 0.34 0.40 0.62 0.80 0.80 0.75 0.52 0.22 0.36 0.51 0.36 0.29 0.30 0.31 0.29 0.29 0.34 0.39 0.48 0.62 0.67 0.69 0.59 0.55 0.59 0.74 0.83 0.90 1.00 1.08 1.23 1.48 1.64 2.01 2.33 2.30 2.22 2.27 2.32
0.33 0.34 0.21 0.21 0.27 0.32 0.34 0.54 0.84 0.95 0.83 0.53 0.37 0.53 0.57 0.41 0.33 0.30 0.29 0.32 0.36 0.40 0.46 0.63 0.80 0.84 0.83 0.71 0.63 0.63 0.75 0.83 0.86 0.92 0.94 1.02 1.14 1.24 1.41 1.64 1.74 1.77 1.83 2.05
0.34 0.30 0.19 0.20 0.20 0.22 0.29 0.35 0.41 0.60 0.58 0.60 0.57 0.65 0.58 0.39 0.37 0.37 0.39 0.43 0.53 0.61 0.66 0.79 0.95 1.01 0.91 0.80 0.71 0.71 0.78 0.90 0.91 0.93 0.96 1.05 1.08 1.08 1.18 1.22 1.35 1.53 1.57 1.62
0.35 0.33 0.22 0.21 0.22 0.21 0.21 0.27 0.43 0.65 0.82 0.85 0.68 0.69 0.66 0.55 0.52 0.48 0.52 0.58 0.70 0.80 0.87 0.96 1.10 1.13 0.97 0.83 0.73 0.72 0.77 0.90 1.08 1.20 1.16 1.13 1.20 1.26 1.46 1.49 1.34 1.32 1.47 1.52
0.46 0.46 0.28 0.24 0.24 0.24 0.25 0.35 0.50 0.67 0.70 0.96 1.07 0.98 0.77 0.70 0.69 0.71 0.75 0.79 0.85 0.98 0.98 0.97 1.07 1.12 1.01 0.81 0.73 0.68 0.71 0.82 0.96 1.01 1.06 1.04 1.12 1.23 1.49 1.71 1.65 1.46 1.45 1.46
0.44 0.59 0.42 0.28 0.26 0.28 0.34 0.45 0.67 1.01 0.96 0.88 1.07 1.06 0.76 0.68 0.71 0.72 0.72 0.72 0.78 0.89 0.89 0.93 0.97 0.92 0.83 0.70 0.61 0.59 0.60 0.71 0.83 0.82 0.88 0.95 0.97 1.08 1.20 1.32 1.34 1.27 1.18 1.14
0.56 0.79 0.77 0.63 0.59 0.47 0.53 0.55 0.63 0.83 0.95 0.97 1.11 1.08 0.72 0.64 0.58 0.60 0.62 0.66 0.68 0.68 0.69 0.70 0.72 0.70 0.68 0.67 0.64 0.58 0.59 0.66 0.73 0.77 0.83 0.89 0.89 0.92 0.96 0.98 0.91 0.96 0.96 1.01
0.57 0.66 0.75 0.81 0.77 0.73 0.70 0.59 0.54 0.76 1.05 0.96 0.92 0.87 0.70 0.61 0.57 0.59 0.60 0.62 0.65 0.57 0.50 0.51 0.53 0.57 0.63 0.64 0.65 0.62 0.57 0.64 0.73 0.88 0.94 0.97 0.97 0.97 0.98 0.96 0.93 0.94 0.95 0.99
0.46 0.47 0.38 0.36 0.38 0.50 0.54 0.47 0.46 0.55 0.66 0.82 0.77 0.73 0.60 0.56 0.61 0.63 0.61 0.56 0.53 0.47 0.40 0.41 0.42 0.47 0.49 0.51 0.54 0.58 0.54 0.58 0.67 0.80 0.91 0.95 0.98 1.01 0.96 0.88 0.84 0.88 0.87 0.87
0.35 0.39 0.31 0.27 0.26 0.36 0.43 0.42 0.42 0.43 0.46 0.57 0.62 0.62 0.49 0.45 0.44 0.46 0.43 0.37 0.37 0.39 0.33 0.30 0.32 0.35 0.36 0.35 0.38 0.39 0.47 0.57 0.62 0.71 0.82 0.99 1.04 0.94 0.87 0.78 0.77 0.78 0.77 0.77
0.33 0.43 0.50 0.40 0.31 0.36 0.59 0.56 0.56 0.59 0.52 0.52 0.46 0.38 0.25 0.25 0.27 0.32 0.32 0.31 0.35 0.34 0.29 0.27 0.28 0.29 0.29 0.31 0.35 0.39 0.48 0.57 0.57 0.64 0.79 0.98 0.97 0.86 0.80 0.82 0.84 0.80 0.78 0.79
0.28 0.45 0.62 0.49 0.49 0.79 0.91 0.64 0.61 0.58 0.38 0.24 0.17 0.15 0.15 0.21 0.20 0.19 0.21 0.23 0.26 0.26 0.22 0.22 0.22 0.23 0.23 0.25 0.30 0.34 0.39 0.42 0.47 0.54 0.66 0.82 0.83 0.80 0.83 0.82 0.78 0.73 0.68 0.66
0.28 0.48 0.70 0.59 0.60 0.76 0.70 0.45 0.38 0.38 0.28 0.12 0.09 0.11 0.13 0.15 0.15 0.12 0.13 0.14 0.15 0.15 0.12 0.12 0.14 0.17 0.16 0.14 0.17 0.21 0.24 0.26 0.31 0.41 0.52 0.63 0.64 0.68 0.70 0.68 0.67 0.63 0.59 0.60
0.41 0.54 0.80 0.73 0.83 0.78 0.41 0.23 0.21 0.29 0.38 0.14 0.09 0.09 0.08 0.09 0.13 0.10 0.07 0.08 0.08 0.09 0.07 0.06 0.07 0.11 0.12 0.10 0.11 0.13 0.17 0.20 0.23 0.31 0.41 0.51 0.55 0.56 0.57 0.62 0.65 0.64 0.59 0.57
0.45 0.56 0.67 0.70 0.91 0.71 0.31 0.20 0.23 0.37 0.45 0.20 0.11 0.09 0.06 0.06 0.06 0.06 0.06 0.06 0.06 0.06 0.06 0.05 0.06 0.09 0.10 0.11 0.10 0.09 0.13 0.17 0.20 0.24 0.31 0.36 0.44 0.52 0.60 0.67 0.68 0.71 0.66 0.60
0.54 0.58 0.57 0.66 0.82 0.73 0.33 0.30 0.36 0.35 0.24 0.18 0.13 0.09 0.06 0.05 0.04 0.03 0.04 0.04 0.05 0.05 0.05 0.05 0.06 0.09 0.09 0.11 0.09 0.08 0.11 0.16 0.18 0.17 0.23 0.33 0.40 0.49 0.59 0.70 0.74 0.72 0.71 0.69
0.56 0.61 0.65 0.73 0.82 0.55 0.36 0.36 0.34 0.28 0.24 0.15 0.09 0.06 0.05 0.05 0.04 0.03 0.03 0.04 0.05 0.06 0.06 0.05 0.06 0.07 0.07 0.08 0.10 0.09 0.11 0.13 0.13 0.15 0.19 0.26 0.31 0.34 0.42 0.52 0.62 0.68 0.69 0.68
0.39 0.39 0.49 0.60 0.52 0.33 0.31 0.31 0.25 0.22 0.18 0.10 0.07 0.05 0.05 0.05 0.04 0.03 0.03 0.03 0.04 0.05 0.06 0.06 0.07 0.08 0.08 0.08 0.09 0.10 0.11 0.12 0.13 0.16 0.19 0.21 0.23 0.23 0.26 0.39 0.46 0.50 0.56 0.61
0.32 0.39 0.45 0.51 0.47 0.33 0.27 0.27 0.23 0.20 0.13 0.08 0.07 0.06 0.05 0.05 0.05 0.03 0.03 0.03 0.04 0.04 0.04 0.06 0.06 0.08 0.09 0.09 0.09 0.11 0.12 0.13 0.14 0.16 0.16 0.17 0.19 0.21 0.23 0.29 0.39 0.45 0.50 0.54
0.26 0.37 0.50 0.55 0.48 0.44 0.28 0.23 0.19 0.16 0.12 0.09 0.08 0.07 0.06 0.07 0.06 0.05 0.04 0.03 0.04 0.05 0.05 0.06 0.07 0.07 0.09 0.09 0.09 0.11 0.13 0.14 0.18 0.21 0.18 0.17 0.18 0.22 0.24 0.26 0.31 0.34 0.37 0.38

GEFSCGP_prec_meanprecacc_252.txt.gz
Total_Precipitation_Accumulation
0.32 0.69 0.94 0.84 0.77 0.78 0.74 0.73 0.74 0.63 0.57 0.60 0.55 0.49 0.53 0.55 0.59 0.53 0.54 0.53 0.43 0.38 0.41 0.39 0.34 0.36 0.39 0.51 0.62 0.78 1.14 1.58 1.75 1.65 1.63 1.66 1.74 1.70 1.60 1.57 1.53 1.58 1.58 1.57
0.38 0.48 0.39 0.43 0.48 0.60 0.69 0.74 0.76 0.66 0.48 0.48 0.48 0.42 0.42 0.48 0.49 0.46 0.43 0.45 0.40 0.36 0.32 0.30 0.27 0.31 0.35 0.52 0.68 0.79 1.08 1.53 1.73 1.84 1.96 2.17 2.33 2.19 2.05 2.03 1.98 2.05 2.07 2.22
0.33 0.29 0.23 0.35 0.52 0.63 0.68 0.71 0.70 0.64 0.49 0.44 0.43 0.45 0.40 0.45 0.40 0.38 0.38 0.39 0.34 0.28 0.26 0.26 0.25 0.29 0.33 0.46 0.59 0.72 0.92 1.22 1.57 1.83 2.10 2.37 2.59 2.55 2.42 2.26 2.24 2.30 2.36 2.51
0.33 0.27 0.27 0.35 0.44 0.54 0.70 0.48 0.44 0.44 0.58 0.59 0.44 0.66 0.47 0.46 0.42 0.38 0.37 0.37 0.36 0.30 0.29 0.31 0.29 0.31 0.35 0.42 0.51 0.67 0.86 1.09 1.34 1.58 1.99 2.42 2.71 2.79 2.68 2.58 2.55 2.50 2.52 2.57
0.31 0.25 0.28 0.33 0.34 0.41 0.52 0.41 0.41 0.43 0.53 0.49 0.35 0.48 0.46 0.39 0.41 0.37 0.34 0.33 0.33 0.31 0.32 0.35 0.36 0.39 0.43 0.46 0.51 0.64 0.79 1.01 1.25 1.48 1.83 2.22 2.50 2.71 2.84 2.67 2.54 2.55 2.58 2.60
0.26 0.20 0.21 0.27 0.31 0.34 0.41 0.44 0.43 0.45 0.52 0.56 0.28 0.40 0.52 0.37 0.33 0.34 0.30 0.28 0.29 0.32 0.37 0.42 0.51 0.56 0.57 0.51 0.56 0.67 0.78 0.93 1.09 1.21 1.42 1.65 2.00 2.24 2.56 2.56 2.49 2.60 2.58 2.50
0.30 0.26 0.22 0.24 0.31 0.34 0.40 0.62 0.80 0.81 0.77 0.52 0.22 0.37 0.51 0.37 0.30 0.31 0.31 0.29 0.30 0.34 0.40 0.49 0.63 0.69 0.71 0.61 0.57 0.62 0.77 0.85 0.92 1.01 1.10 1.24 1.49 1.65 2.02 2.34 2.31 2.23 2.27 2.32
0.33 0.34 0.21 0.21 0.27 0.32 0.34 0.54 0.85 0.96 0.84 0.54 0.37 0.54 0.58 0.42 0.34 0.30 0.29 0.32 0.37 0.42 0.47 0.65 0.82 0.87 0.86 0.74 0.65 0.66 0.77 0.85 0.88 0.93 0.95 1.02 1.15 1.24 1.42 1.65 1.76 1.79 1.84 2.05
0.34 0.30 0.19 0.20 0.20 0.22 0.29 0.36 0.42 0.60 0.58 0.60 0.58 0.66 0.59 0.40 0.38 0.37 0.39 0.44 0.55 0.63 0.68 0.81 0.97 1.04 0.95 0.82 0.73 0.74 0.81 0.92 0.93 0.95 0.97 1.06 1.08 1.09 1.19 1.22 1.37 1.55 1.59 1.63
0.36 0.34 0.22 0.21 0.22 0.21 0.21 0.27 0.43 0.65 0.83 0.85 0.69 0.70 0.67 0.56 0.52 0.49 0.53 0.59 0.71 0.81 0.88 0.97 1.12 1.15 1.00 0.85 0.76 0.76 0.81 0.92 1.10 1.22 1.18 1.15 1.21 1.27 1.47 1.50 1.35 1.33 1.48 1.54
0.47 0.47 0.28 0.24 0.24 0.24 0.26 0.36 0.50 0.68 0.70 0.96 1.08 1.00 0.78 0.71 0.70 0.72 0.75 0.79 0.86 0.99 0.99 0.98 1.08 1.14 1.03 0.84 0.77 0.74 0.77 0.86 1.00 1.04 1.09 1.07 1.14 1.25 1.51 1.72 1.66 1.47 1.46 1.48
0.45 0.59 0.42 0.28 0.27 0.28 0.34 0.45 0.67 1.02 0.96 0.89 1.09 1.08 0.77 0.69 0.72 0.73 0.74 0.74 0.79 0.90 0.90 0.94 0.98 0.94 0.85 0.72 0.65 0.64 0.65 0.75 0.88 0.88 0.92 0.98 0.99 1.10 1.22 1.32 1.34 1.28 1.19 1.16
0.58 0.80 0.77 0.63 0.59 0.47 0.53 0.55 0.64 0.83 0.95 0.98 1.12 1.09 0.73 0.65 0.59 0.61 0.64 0.68 0.69 0.69 0.69 0.70 0.73 0.71 0.70 0.70 0.67 0.62 0.61 0.69 0.77 0.83 0.91 0.96 0.94 0.95 0.98 0.99 0.92 0.96 0.97 1.03
0.59 0.67 0.76 0.81 0.78 0.73 0.70 0.59 0.54 0.76 1.05 0.97 0.93 0.88 0.70 0.62 0.58 0.59 0.61 0.63 0.65 0.58 0.50 0.51 0.54 0.58 0.65 0.67 0.68 0.64 0.59 0.65 0.76 0.92 1.01 1.05 1.04 1.02 1.01 0.98 0.94 0.94 0.95 0.99
0.47 0.47 0.38 0.36 0.38 0.50 0.54 0.47 0.46 0.56 0.66 0.82 0.78 0.73 0.60 0.57 0.61 0.63 0.61 0.56 0.54 0.47 0.40 0.41 0.42 0.48 0.51 0.54 0.57 0.60 0.56 0.60 0.68 0.82 0.94 1.00 1.05 1.08 1.00 0.90 0.86 0.90 0.88 0.87
0.35 0.39 0.31 0.27 0.26 0.36 0.43 0.42 0.43 0.43 0.47 0.58 0.63 0.62 0.49 0.45 0.44 0.46 0.44 0.38 0.39 0.40 0.33 0.30 0.32 0.36 0.37 0.38 0.41 0.42 0.50 0.62 0.64 0.72 0.83 1.02 1.09 1.01 0.92 0.81 0.79 0.80 0.78 0.77
0.33 0.43 0.50 0.40 0.31 0.36 0.59 0.56 0.57 0.59 0.52 0.53 0.47 0.38 0.25 0.25 0.27 0.32 0.33 0.32 0.36 0.35 0.30 0.27 0.28 0.30 0.31 0.33 0.39 0.42 0.49 0.59 0.58 0.65 0.81 1.00 1.00 0.92 0.86 0.86 0.87 0.82 0.79 0.79
0.28 0.45 0.63 0.50 0.49 0.80 0.91 0.64 0.62 0.58 0.38 0.24 0.18 0.16 0.15 0.21 0.20 0.19 0.21 0.24 0.27 0.27 0.23 0.23 0.23 0.23 0.25 0.28 0.33 0.36 0.41 0.43 0.48 0.56 0.67 0.84 0.85 0.84 0.88 0.87 0.83 0.75 0.69 0.66
0.28 0.48 0.70 0.59 0.61 0.76 0.70 0.46 0.38 0.38 0.28 0.13 0.10 0.11 0.13 0.15 0.15 0.13 0.13 0.14 0.15 0.16 0.13 0.13 0.15 0.17 0.18 0.17 0.19 0.23 0.26 0.28 0.32 0.42 0.53 0.65 0.67 0.72 0.74 0.72 0.73 0.68 0.62 0.61
0.41 0.54 0.80 0.73 0.84 0.79 0.42 0.24 0.22 0.30 0.39 0.15 0.10 0.10 0.08 0.09 0.13 0.10 0.07 0.08 0.09 0.09 0.08 0.07 0.08 0.12 0.15 0.14 0.14 0.16 0.19 0.22 0.24 0.33 0.43 0.54 0.58 0.59 0.61 0.66 0.69 0.69 0.63 0.59
0.45 0.56 0.67 0.70 0.91 0.71 0.32 0.21 0.24 0.40 0.47 0.21 0.13 0.10 0.07 0.06 0.07 0.06 0.06 0.06 0.06 0.06 0.06 0.06 0.07 0.11 0.14 0.14 0.12 0.11 0.15 0.18 0.21 0.25 0.33 0.41 0.48 0.55 0.63 0.70 0.72 0.74 0.70 0.64
0.54 0.58 0.57 0.66 0.82 0.74 0.35 0.31 0.39 0.38 0.27 0.20 0.15 0.11 0.08 0.06 0.04 0.04 0.04 0.04 0.05 0.05 0.05 0.06 0.07 0.12 0.14 0.14 0.12 0.10 0.12 0.17 0.18 0.18 0.24 0.36 0.45 0.53 0.62 0.74 0.79 0.76 0.75 0.73
0.56 0.62 0.65 0.73 0.82 0.56 0.37 0.37 0.35 0.29 0.25 0.16 0.10 0.09 0.08 0.06 0.04 0.03 0.03 0.04 0.05 0.06 0.06 0.06 0.07 0.11 0.10 0.11 0.12 0.11 0.13 0.14 0.14 0.16 0.20 0.26 0.32 0.35 0.45 0.56 0.68 0.73 0.72 0.71
0.39 0.39 0.49 0.60 0.52 0.34 0.32 0.31 0.25 0.22 0.18 0.10 0.07 0.05 0.05 0.06 0.05 0.03 0.03 0.03 0.04 0.05 0.06 0.07 0.09 0.11 0.11 0.10 0.12 0.12 0.13 0.13 0.14 0.17 0.20 0.21 0.23 0.24 0.28 0.42 0.49 0.54 0.60 0.64
0.33 0.39 0.45 0.52 0.47 0.33 0.27 0.28 0.24 0.20 0.14 0.08 0.07 0.06 0.05 0.06 0.05 0.04 0.03 0.04 0.04 0.04 0.05 0.07 0.09 0.10 0.11 0.10 0.11 0.12 0.14 0.14 0.15 0.16 0.17 0.18 0.20 0.22 0.24 0.30 0.41 0.47 0.53 0.57
0.26 0.37 0.50 0.55 0.48 0.44 0.28 0.24 0.20 0.17 0.12 0.09 0.08 0.07 0.06 0.07 0.07 0.05 0.04 0.03 0.04 0.05 0.06 0.08 0.09 0.09 0.11 0.10 0.10 0.13 0.14 0.15 0.19 0.22 0.19 0.18 0.19 0.23 0.25 0.27 0.32 0.36 0.39 0.41

GEFSCGP_prec_meanprecacc_258.txt.gz
Total_Precipitation_Accumulation
0.32 0.69 0.95 0.84 0.77 0.78 0.74 0.73 0.74 0.63 0.57 0.60 0.55 0.49 0.53 0.56 0.59 0.53 0.54 0.53 0.44 0.39 0.41 0.39 0.34 0.37 0.40 0.51 0.63 0.79 1.15 1.58 1.77 1.66 1.64 1.67 1.74 1.71 1.61 1.57 1.54 1.58 1.58 1.58
0.38 0.48 0.39 0.43 0.48 0.60 0.69 0.74 0.76 0.66 0.48 0.48 0.48 0.42 0.43 0.49 0.50 0.46 0.43 0.46 0.41 0.36 0.32 0.30 0.27 0.31 0.35 0.53 0.68 0.80 1.09 1.54 1.74 1.85 1.97 2.18 2.34 2.21 2.06 2.04 1.98 2.06 2.07 2.22
0.33 0.29 0.23 0.35 0.52 0.63 0.68 0.71 0.70 0.64 0.49 0.44 0.43 0.45 0.40 0.45 0.40 0.38 0.38 0.39 0.35 0.28 0.26 0.27 0.26 0.30 0.34 0.47 0.60 0.73 0.94 1.24 1.58 1.84 2.11 2.39 2.61 2.57 2.44 2.27 2.25 2.31 2.36 2.51
0.33 0.27 0.27 0.35 0.44 0.54 0.70 0.48 0.44 0.44 0.58 0.59 0.44 0.66 0.47 0.46 0.42 0.38 0.38 0.37 0.36 0.30 0.29 0.32 0.29 0.32 0.36 0.43 0.53 0.69 0.90 1.13 1.37 1.60 2.01 2.44 2.72 2.80 2.70 2.60 2.57 2.52 2.52 2.58
0.31 0.25 0.28 0.33 0.34 0.41 0.52 0.41 0.41 0.43 0.53 0.49 0.35 0.48 0.46 0.39 0.41 0.37 0.34 0.33 0.33 0.31 0.32 0.36 0.36 0.39 0.44 0.48 0.53 0.67 0.83 1.05 1.28 1.51 1.85 2.24 2.51 2.72 2.85 2.68 2.55 2.57 2.59 2.62
0.26 0.20 0.21 0.27 0.31 0.34 0.41 0.44 0.44 0.45 0.52 0.56 0.28 0.40 0.52 0.37 0.33 0.34 0.30 0.28 0.29 0.32 0.38 0.42 0.52 0.57 0.58 0.54 0.59 0.68 0.80 0.97 1.12 1.24 1.44 1.66 2.01 2.24 2.57 2.57 2.50 2.62 2.59 2.51
0.30 0.26 0.22 0.24 0.31 0.34 0.40 0.62 0.81 0.81 0.77 0.52 0.22 0.37 0.51 0.37 0.30 0.31 0.32 0.29 0.30 0.34 0.40 0.49 0.64 0.71 0.73 0.63 0.59 0.63 0.80 0.88 0.95 1.03 1.11 1.25 1.50 1.66 2.03 2.35 2.32 2.24 2.28 2.33
0.34 0.34 0.21 0.21 0.28 0.32 0.34 0.54 0.85 0.96 0.84 0.54 0.37 0.54 0.58 0.42 0.34 0.31 0.30 0.33 0.37 0.42 0.48 0.66 0.83 0.89 0.88 0.76 0.68 0.69 0.81 0.88 0.90 0.95 0.96 1.04 1.16 1.26 1.44 1.66 1.77 1.80 1.84 2.06
0.35 0.30 0.19 0.20 0.20 0.22 0.30 0.36 0.42 0.61 0.58 0.60 0.58 0.66 0.59 0.40 0.38 0.37 0.40 0.45 0.56 0.64 0.69 0.82 0.98 1.06 0.97 0.85 0.75 0.77 0.85 0.97 0.96 0.99 1.00 1.08 1.10 1.10 1.20 1.24 1.38 1.56 1.60 1.65
0.36 0.34 0.22 0.21 0.23 0.21 0.21 0.28 0.44 0.65 0.83 0.85 0.69 0.70 0.68 0.56 0.53 0.50 0.54 0.60 0.71 0.82 0.89 0.98 1.13 1.17 1.02 0.88 0.79 0.79 0.86 0.97 1.14 1.26 1.22 1.18 1.23 1.29 1.49 1.51 1.36 1.34 1.50 1.55
0.47 0.47 0.28 0.25 0.24 0.24 0.26 0.36 0.50 0.68 0.70 0.97 1.08 1.00 0.79 0.71 0.70 0.73 0.76 0.80 0.87 0.99 1.00 0.99 1.09 1.15 1.05 0.87 0.79 0.77 0.80 0.89 1.03 1.07 1.12 1.10 1.16 1.27 1.53 1.73 1.67 1.49 1.47 1.49
0.45 0.60 0.43 0.29 0.27 0.28 0.35 0.46 0.67 1.02 0.97 0.89 1.09 1.08 0.78 0.69 0.73 0.74 0.74 0.74 0.79 0.90 0.90 0.94 0.98 0.95 0.87 0.74 0.67 0.65 0.67 0.77 0.91 0.91 0.95 1.01 1.03 1.12 1.24 1.35 1.36 1.29 1.20 1.17
0.59 0.80 0.78 0.63 0.59 0.47 0.53 0.55 0.64 0.83 0.95 0.98 1.12 1.09 0.73 0.65 0.60 0.61 0.64 0.68 0.70 0.70 0.70 0.71 0.73 0.71 0.71 0.72 0.70 0.64 0.64 0.71 0.80 0.85 0.94 1.01 0.99 0.99 1.00 1.01 0.95 0.99 0.99 1.04
0.60 0.68 0.76 0.81 0.78 0.73 0.70 0.59 0.55 0.76 1.05 0.97 0.93 0.88 0.70 0.62 0.58 0.60 0.62 0.63 0.66 0.58 0.51 0.52 0.55 0.59 0.66 0.69 0.70 0.67 0.61 0.67 0.78 0.94 1.02 1.08 1.08 1.06 1.04 1.02 0.97 0.98 0.98 1.01
0.49 0.49 0.39 0.36 0.38 0.50 0.54 0.47 0.46 0.56 0.66 0.82 0.78 0.73 0.60 0.57 0.61 0.64 0.62 0.57 0.54 0.47 0.41 0.41 0.43 0.48 0.51 0.55 0.59 0.63 0.58 0.61 0.69 0.83 0.95 1.01 1.07 1.11 1.04 0.94 0.90 0.94 0.91 0.89
0.37 0.41 0.32 0.27 0.27 0.36 0.43 0.42 0.43 0.43 0.47 0.58 0.63 0.62 0.49 0.45 0.44 0.47 0.45 0.39 0.40 0.40 0.34 0.31 0.33 0.36 0.38 0.38 0.42 0.44 0.51 0.64 0.66 0.73 0.84 1.03 1.10 1.02 0.94 0.84 0.84 0.85 0.82 0.81
0.34 0.44 0.52 0.41 0.32 0.37 0.60 0.57 0.57 0.59 0.53 0.53 0.47 0.38 0.25 0.25 0.27 0.32 0.33 0.32 0.36 0.35 0.30 0.28 0.29 0.30 0.31 0.34 0.39 0.43 0.51 0.60 0.60 0.66 0.82 1.01 1.01 0.92 0.87 0.88 0.90 0.85 0.82 0.82
0.29 0.46 0.64 0.50 0.50 0.80 0.91 0.65 0.62 0.58 0.38 0.25 0.18 0.16 0.15 0.21 0.20 0.19 0.22 0.24 0.28 0.27 0.23 0.23 0.23 0.24 0.26 0.29 0.34 0.38 0.43 0.45 0.48 0.56 0.68 0.85 0.86 0.84 0.89 0.89 0.84 0.78 0.72 0.70
0.28 0.49 0.71 0.60 0.61 0.76 0.70 0.46 0.39 0.39 0.29 0.13 0.10 0.11 0.13 0.15 0.15 0.13 0.14 0.15 0.16 0.16 0.14 0.14 0.16 0.18 0.19 0.18 0.21 0.24 0.26 0.29 0.33 0.43 0.54 0.66 0.68 0.73 0.75 0.72 0.74 0.71 0.66 0.65
0.42 0.55 0.80 0.73 0.84 0.79 0.42 0.24 0.22 0.32 0.40 0.15 0.11 0.11 0.09 0.09 0.13 0.10 0.08 0.08 0.09 0.09 0.08 0.08 0.09 0.13 0.16 0.14 0.15 0.16 0.20 0.23 0.25 0.34 0.44 0.55 0.59 0.60 0.62 0.67 0.70 0.70 0.66 0.64
0.46 0.57 0.67 0.71 0.91 0.71 0.33 0.21 0.25 0.41 0.49 0.23 0.14 0.11 0.08 0.07 0.07 0.06 0.06 0.06 0.07 0.07 0.06 0.07 0.07 0.12 0.15 0.15 0.13 0.12 0.15 0.19 0.22 0.26 0.35 0.42 0.49 0.55 0.64 0.72 0.73 0.75 0.72 0.68
0.54 0.59 0.58 0.66 0.83 0.75 0.36 0.33 0.41 0.41 0.28 0.21 0.16 0.12 0.09 0.06 0.04 0.04 0.04 0.04 0.05 0.06 0.05 0.06 0.07 0.12 0.14 0.15 0.13 0.11 0.13 0.18 0.20 0.20 0.26 0.37 0.46 0.54 0.64 0.76 0.81 0.78 0.76 0.75
0.56 0.62 0.65 0.73 0.83 0.56 0.38 0.40 0.37 0.31 0.26 0.17 0.11 0.09 0.08 0.06 0.04 0.03 0.03 0.04 0.05 0.06 0.06 0.06 0.08 0.11 0.10 0.12 0.13 0.12 0.14 0.16 0.15 0.17 0.22 0.29 0.34 0.37 0.47 0.58 0.70 0.75 0.74 0.72
0.39 0.39 0.49 0.60 0.52 0.34 0.32 0.33 0.28 0.25 0.20 0.11 0.08 0.06 0.05 0.06 0.05 0.04 0.03 0.03 0.04 0.05 0.06 0.07 0.09 0.12 0.11 0.10 0.12 0.12 0.14 0.14 0.15 0.18 0.22 0.23 0.26 0.27 0.31 0.45 0.52 0.56 0.62 0.66
0.33 0.39 0.45 0.52 0.47 0.34 0.28 0.29 0.27 0.24 0.17 0.11 0.09 0.07 0.06 0.06 0.06 0.04 0.03 0.04 0.04 0.04 0.05 0.07 0.09 0.11 0.11 0.11 0.11 0.13 0.14 0.15 0.16 0.18 0.19 0.20 0.22 0.24 0.27 0.34 0.44 0.50 0.55 0.59
0.27 0.37 0.51 0.56 0.48 0.44 0.29 0.25 0.22 0.20 0.17 0.13 0.11 0.10 0.10 0.10 0.09 0.07 0.05 0.04 0.05 0.06 0.06 0.09 0.09 0.09 0.11 0.10 0.10 0.13 0.15 0.15 0.20 0.22 0.20 0.19 0.20 0.24 0.26 0.30 0.36 0.39 0.42 0.44